SCP
0 -0 -0 -0 -0 -0 -0 -0 -0 -0 -0 -0 -0 -0 0 -0 0 0 0 0 0 0 0 0 0 0 -0 0 0 0 0 0 0 0 0 0 0 0 0 0 0 0 0 0 0 0 0 0 0 0 0 0 0 0
-0 0 -0 -0 -0 0 -0 -0 -0 -0 -0 -0 -0 -0 0 0 -0 -0 0 0 0 0 0 0 0 0 0 0 0 0 0 0 0 0 0 0 0 0 0 0 0 0 0 0 0 0 0 0 0 0 0 0 0 0
0 -0 0 -0 -0 0 -0 -0 -0 -0 -0 -0 -0 -0 -0 -0 -0 0 0 0 0 0 0 0 0 0 -0 0 0 0 0 0 0 0 0 0 0 0 0 0 0 0 0 0 0 0 0 0 0 0 0 0 0 0
0 -0 0 -0 -0 0 0 -0 -0 -0 -0 -0 -0 -0 -0 -0 -0 0 0 0 0 0 0 0 -0 -0 0 0 -0 0 0 0 0 0 0 0 0 0 0 0 0 0 0 0 0 0 0 0 0 0 0 0 0 0
0 -0 -0 0 0 -0 0 0 -0 -0 -0 -0 -0 0 0 0 -0 0 0 0 0 0 0 0 0 0 0 0 -0 -0 -0 0 0 0 0 0 0 0 0 0 0 0 0 0 0 0 0 0 0 0 0 -0 -0 -0
0 0 0 0 0 -0 0 0 -0 0 0 0 0 -0 0 -0 0 0 0 0 0 0 0 0 0 0 0 0 0 0 -0 -0 -0 -0 -0 -0 0 -0 -0 0 0 0 0 0 0 0 0 0 0 -0 -0 -0 -0 0
0 0 0 0 0 0 0 0 0 0 -0 0 -0 -0 -0 -0 0 0 0 0 0 0 0 0 0 0 0 0 0 0 0 -0 -0 -0 -0 -0 -0 -0 -0 0 0 0 0 0 -0 -0 -0 -0 -0 -0 -0 -0 -0 0
0 0 0 0 0 0 0 0 0 0 -0 -0 -0 -0 -0 -0 -0 -0 0 0 0 0 -0 0 0 0 0 0 0 0 0 0 -0 -0 -0 -0 -0 0 0 0 0 0 -0 0 0 0 0 -0 -0 -0 -0 -0 -0 -0
0 0 0 0 0 0 0 0 0 -0 -0 -0 -0 -0 -0 -0 0 0 -0 0 0 -0 0 0 0 0 0 0 0 0 0 0 0 0 0 0 0 0 -0 0 0 -0 -0 0 -0 -0 0 0 0 0 0 -0 -0 -0
0 0 0 0 0 0 0 0 0 -0 -0 0 0 0 0 0 -0 -0 -0 -0 0 0 -0 0 0 0 0 0 0 0 0 0 0 0 0 0 -0 -0 -0 -0 -0 -0 -0 -0 -0 -0 0 -0 0 0 0 0 0 0
0 0 0 0 0 0 0 0 0 0 0 0 0 0 0 0 0 -0 0 0 0 0 -0 0 0 0 0 0 0 0 0 0 0 0 0 0 -0 -0 -0 -0 -0 -0 -0 -0 -0 0 0 -0 -0 -0 -0 0 0 0
0 0 0 0 0 0 0 0 0 0 0 0 0 0 0 0 0 0 -0 -0 -0 0 0 -0 0 0 0 0 0 0 0 -0 0 0 -0 -0 -0 -0 -0 0 -0 -0 0 0 0 0 0 0 0 0 0 0 0 0
0 0 0 0 0 0 0 0 0 0 0 0 0 0 0 0 0 0 0 -0 -0 0 0 0 0 0 0 0 0 -0 -0 0 -0 -0 -0 -0 -0 -0 0 -0 -0 -0 -0 0 0 0 0 0 0 0 0 0 0 0
0 0 0 0 0 0 0 0 0 0 0 0 0 0 0 0 0 0 0 0 0 0 0 0 0 0 0 0 0 0 0 0 0 0 0 0 0 0 -0 0 0 0 0 0 0 0 0 0 0 0 0 0 0 0
0 0 0 0 0 0 0 0 0 0 0 0 0 0 0 0 0 0 0 0 0 0 0 0 0 0 0 0 0 0 0 0 0 0 0 0 0 0 0 0 0 0 0 0 0 0 0 0 0 0 0 0 0 0
0 0 0 0 0 0 0 0 0 0 0 0 0 0 0 0 0 0 0 0 0 0 0 0 0 0 0 0 0 0 0 0 0 0 0 0 0 0 0 0 0 0 0 0 0 0 0 0 0 0 0 0 0 0
0 0 0 0 0 0 0 0 0 0 0 0 0 0 0 0 0 0 0 0 -0 0 0 0 0 0 0 0 0 0 0 0 0 0 0 0 0 0 0 0 0 0 0 0 0 0 0 0 0 0 0 0 0 0
0 0 0 0 0 0 0 0 0 0 0 0 0 0 0 0 0 0 0 0 0 0 0 0 0 0 0 0 0 0 0 0 0 0 0 0 0 0 0 0 0 0 0 0 0 0 0 0 0 0 0 0 0 0
0 0 0 0 0 0 0 0 0 0 0 0 0 0 0 0 0 0 0 0 0 0 0 0 0 0 0 0 0 0 0 0 0 0 0 0 0 0 0 0 0 0 0 0 0 0 0 0 0 0 0 0 0 0
0 0 0 0 0 0 0 0 0 0 0 0 0 0 0 0 0 0 0 0 0 0 0 0 0 0 0 0 0 0 0 0 0 0 0 0 0 0 0 0 0 0 0 0 0 0 0 0 0 0 0 0 0 0
0 0 0 0 0 0 0 0 0 0 0 0 0 0 0 0 0 0 0 0 0 0 0 0 0 0 0 0 0 0 0 0 0 0 0 0 0 0 0 0 0 0 0 0 0 0 0 0 0 0 0 0 0 0
0 0 0 0 0 0 0 0 0 0 0 0 0 0 0 0 0 0 0 0 0 0 0 0 0 0 0 0 0 0 0 0 0 0 0 0 0 0 0 0 0 0 0 0 0 0 0 0 0 0 0 0 0 0
0 0 0 0 0 0 0 0 0 0 0 0 0 0 0 0 0 0 0 0 0 0 0 0 0 0 0 0 0 0 0 0 0 0 0 0 0 0 0 0 0 0 0 0 0 0 0 0 0 0 0 0 0 0
0 0 0 0 0 0 0 0 0 0 0 0 0 0 0 0 0 0 0 0 0 0 0 0 0 0 0 0 0 0 0 0 0 0 0 0 0 0 0 0 0 0 0 0 0 0 0 0 0 0 0 0 0 0
0 0 0 0 0 0 0 0 0 0 0 0 0 0 0 0 0 0 0 0 0 0 0 0 0 0 0 0 0 0 0 0 0 0 0 0 0 0 0 0 0 0 0 0 0 0 0 0 0 0 0 0 0 0
0 0 0 0 0 0 0 0 0 0 0 0 0 0 0 0 0 0 0 0 0 0 0 0 0 0 0 0 0 0 0 0 0 0 0 0 0 0 0 0 -0 -0 -0 0 0 0 0 0 0 0 0 0 0 0
0 0 0 0 0 0 0 0 0 0 0 0 0 0 0 0 0 0 0 0 0 0 0 0 0 0 0 0 0 0 0 0 0 0 0 0 0 0 0 0 0 -0 0 0 0 0 0 0 0 0 0 0 0 0
0 0 0 0 0 0 0 0 0 0 0 0 0 0 0 0 0 0 0 0 0 0 0 0 0 0 0 0 0 0 0 0 0 0 0 0 0 0 0 0 0 -0 0 0 0 0 0 0 0 0 0 0 0 0
0 0 0 0 0 0 0 0 0 0 0 0 0 0 0 0 0 0 0 0 0 0 0 0 0 0 0 0 0 0 0 0 0 0 0 0 0 0 0 0 0 0 0 0 0 0 0 0 0 0 0 0 0 0
0 0 0 0 0 0 0 0 0 0 0 0 0 0 0 0 0 0 0 0 0 0 0 0 0 0 0 0 0 0 0 0 0 0 0 0 0 0 0 0 0 0 0 0 0 0 0 0 0 0 0 0 0 0
0 0 0 0 0 0 0 0 0 0 0 0 0 0 0 0 0 0 0 0 0 0 0 0 0 0 0 0 0 0 0 0 0 0 0 0 0 0 0 0 0 0 0 0 0 0 0 0 0 0 0 0 0 0
0 0 0 0 0 0 0 0 0 0 0 0 0 0 0 0 0 0 0 0 0 0 0 0 0 0 0 0 0 0 0 0 0 0 0 0 0 0 0 0 0 0 0 0 0 0 0 0 0 0 0 0 0 0
0 0 0 0 0 0 0 0 0 0 0 0 0 0 0 0 0 0 0 0 0 0 0 0 0 0 0 0 0 0 0 0 0 0 0 0 0 0 0 0 0 0 0 0 0 0 0 0 0 0 0 0 0 0
Wind_Speed_500mb
38 33 30 25 20 19 17 14 12 11 11 13 12 10 9 6 6 5 4 2 2 13 11 7 5 5 9 9 7 13 7 7 7 7 6 4 6 6 6 4 9 10 10 6 6 8 12 16 8 11 9 12 7 2
30 27 31 30 25 22 21 21 20 18 17 15 14 14 16 16 11 4 0 6 6 9 14 20 19 15 15 10 10 6 7 4 3 7 3 6 5 5 6 4 4 3 11 9 14 11 10 11 3 9 11 8 11 8
29 24 19 19 17 15 14 16 20 23 21 18 15 15 13 8 10 5 6 10 13 20 17 7 8 10 6 8 12 5 4 4 6 8 9 4 5 5 5 8 3 4 11 3 6 9 26 27 24 30 25 23 21 23
31 28 24 22 19 15 12 9 8 10 17 18 14 4 6 11 7 5 5 4 7 15 8 4 6 9 7 8 10 11 13 10 13 10 8 5 6 3 4 4 5 12 14 11 9 15 23 33 37 44 31 20 24 27
34 31 27 24 19 14 14 14 13 12 10 13 14 10 10 10 8 8 7 9 6 3 11 9 12 8 9 10 9 9 13 12 6 6 5 2 4 4 4 2 7 21 13 10 12 27 17 8 15 12 18 20 25 27
36 32 30 25 20 17 18 16 14 10 10 11 12 14 14 14 13 8 5 10 11 10 9 6 5 6 5 9 11 13 14 9 6 4 4 2 4 4 2 6 17 42 47 53 24 28 21 13 17 26 31 33 35 33
41 37 32 25 23 19 15 15 10 9 8 11 14 13 12 13 14 8 3 8 20 9 4 10 5 3 11 9 5 6 5 5 5 5 4 1 2 4 3 8 11 29 30 41 49 48 45 55 48 37 32 26 25 27
44 40 37 33 28 21 18 15 12 11 11 12 16 12 11 9 11 9 8 17 21 5 6 6 4 3 12 4 5 4 4 4 6 4 3 3 5 5 10 30 20 23 21 26 29 33 42 46 44 40 32 29 32 34
47 44 40 37 32 26 22 19 15 11 13 20 19 9 3 4 6 7 14 20 14 3 7 7 8 6 11 5 5 4 3 3 2 2 4 1 4 12 21 26 34 28 28 16 20 34 42 47 44 43 42 41 40 36
52 47 43 39 35 32 29 27 20 16 15 15 14 4 4 7 14 21 8 8 7 3 4 7 12 6 11 9 6 6 0 1 3 3 3 3 8 63 66 53 49 33 22 32 35 33 29 29 27 24 29 33 38 34
56 51 46 42 38 36 31 27 28 18 13 9 6 4 13 17 6 4 5 5 3 4 4 8 8 8 11 5 5 3 4 4 4 7 6 5 7 14 10 11 12 31 48 55 51 46 43 41 38 34 31 27 27 29
59 55 50 45 41 38 32 26 25 23 13 11 9 13 11 4 4 9 2 4 4 8 10 11 10 8 12 9 8 3 6 5 5 2 6 7 9 24 15 1 6 8 8 12 19 23 24 27 28 31 33 36 36 37
61 57 51 46 40 37 37 30 26 26 19 13 7 8 5 2 9 9 8 7 3 17 19 15 7 8 9 6 11 6 7 7 0 5 7 10 21 11 5 11 12 11 8 4 7 11 14 17 21 25 27 29 31 33
62 57 52 48 44 39 38 33 25 26 13 8 11 3 8 3 8 8 8 8 8 8 39 31 16 7 8 6 5 9 4 4 6 4 12 6 22 13 13 20 23 17 16 14 13 16 21 26 28 31 35 36 37 36
63 57 52 49 46 41 39 33 25 20 9 7 10 7 9 9 7 10 10 11 12 36 42 18 13 5 4 7 5 7 7 7 12 10 7 12 24 16 6 13 20 22 23 26 26 30 33 38 41 42 45 47 48 48
63 53 54 53 49 46 43 36 26 16 5 8 10 4 7 5 5 13 23 18 33 50 18 7 8 6 2 8 6 13 11 12 8 8 10 18 20 16 16 15 14 17 22 26 30 36 42 48 56 57 52 52 57 54
67 53 65 60 54 50 40 36 18 9 9 7 7 19 20 4 6 11 24 26 51 38 6 9 7 12 10 4 5 9 10 8 13 13 6 9 14 23 33 35 30 29 29 31 49 62 65 64 61 60 60 58 53 52
79 70 60 67 65 57 50 33 12 10 12 17 10 14 28 15 12 16 19 42 42 26 20 8 15 6 10 10 8 10 35 33 29 21 21 33 35 36 28 27 36 48 59 70 66 61 62 62 60 61 61 58 55 52
85 71 61 80 79 56 25 26 16 11 23 7 16 20 17 13 27 14 20 48 29 25 13 13 4 8 9 20 25 37 41 42 48 50 48 42 34 42 56 62 64 61 60 62 62 65 67 70 75 73 69 62 55 46
74 58 69 77 80 26 18 14 23 14 13 16 22 21 17 14 22 27 29 44 35 12 8 6 12 30 34 50 45 43 48 49 49 56 65 62 60 69 67 62 62 62 62 63 66 70 71 70 69 66 60 52 46 40
64 69 59 84 68 29 18 19 20 14 11 14 16 22 12 17 20 26 28 40 24 14 16 45 65 80 79 80 83 83 83 83 78 75 82 83 76 72 73 73 73 71 71 69 66 64 63 63 56 57 53 46 38 32
66 91 72 78 23 23 20 27 13 24 17 9 18 20 9 11 15 19 26 23 20 37 48 70 89 95 98 102 94 79 72 65 71 80 84 83 83 83 79 69 64 61 61 61 54 53 53 45 45 44 39 32 29 28
80 83 43 34 19 29 11 36 21 26 8 18 20 8 6 12 15 27 15 22 29 59 72 83 94 97 97 97 95 93 90 90 88 87 82 74 67 61 59 57 52 53 54 55 51 49 46 38 35 30 25 25 27 28
75 66 28 33 33 13 24 17 14 15 12 8 9 7 6 15 19 8 8 14 44 51 68 90 86 90 89 88 86 85 77 65 61 65 58 53 52 50 44 41 43 45 45 46 43 38 32 26 23 21 22 26 28 27
29 24 22 13 27 14 9 9 7 5 8 8 8 5 7 17 5 7 8 14 42 73 79 75 75 74 71 71 65 59 54 53 52 52 46 40 37 36 34 34 36 38 38 37 32 27 23 23 23 26 27 29 30 31
15 22 28 26 18 15 15 15 15 12 9 9 8 13 11 6 5 12 8 36 68 68 56 51 49 49 47 50 52 52 48 45 47 40 39 37 31 29 31 42 36 22 23 25 25 21 23 25 26 27 29 31 32 32
14 11 22 25 26 27 12 11 16 9 14 15 11 12 9 11 15 10 20 37 34 33 33 33 34 36 39 36 37 40 40 34 33 37 40 38 35 36 38 48 38 21 28 31 26 20 22 22 25 28 30 32 32 31
15 30 19 26 17 31 14 11 15 19 11 22 25 14 24 20 13 8 12 14 20 24 27 29 31 33 33 36 38 36 36 37 36 35 32 34 33 30 30 32 24 20 24 27 27 27 27 26 26 28 32 32 33 32
12 23 40 13 11 13 17 16 17 30 38 40 17 13 12 10 9 8 7 9 11 13 16 19 21 23 27 29 31 32 34 36 38 37 38 39 36 35 36 36 33 31 29 30 31 32 31 28 29 30 31 30 29 31
13 10 13 20 15 16 15 24 26 41 50 31 23 20 17 13 7 2 7 10 12 13 16 21 26 29 32 34 34 32 35 36 38 39 42 43 42 41 40 38 36 31 29 28 29 35 41 40 37 38 36 36 35 38
18 14 8 5 6 9 7 13 17 27 31 19 13 14 18 22 18 18 18 11 11 13 17 22 24 30 34 36 40 43 38 37 35 36 41 45 45 43 40 37 35 32 29 29 30 32 32 35 37 37 37 37 39 41
24 14 7 6 6 16 10 8 9 10 11 11 15 14 12 10 10 13 26 25 19 18 21 25 29 29 31 34 37 41 45 44 42 43 43 45 44 42 40 36 34 34 33 30 31 33 33 31 32 34 35 39 43 41
6 17 17 10 11 10 19 9 11 10 20 12 18 16 15 10 9 19 21 31 35 32 33 33 33 32 32 32 33 34 36 38 39 40 40 41 41 37 34 31 28 26 26 26 28 31 31 29 31 35 40 44 42 40
Wind_Direction_500mb
222 215 218 214 210 211 214 219 220 218 225 235 245 248 238 254 334 21 73 88 202 106 93 92 103 112 100 109 137 155 67 324 34 55 102 231 109 230 76 196 169 156 131 189 82 71 285 203 88 163 179 148 169 120
216 218 219 220 220 224 230 235 237 235 237 246 257 266 268 256 244 275 349 100 117 104 127 117 98 101 112 114 122 109 126 122 131 84 41 94 53 42 158 216 185 222 176 180 180 210 250 207 166 169 161 177 208 240
211 209 212 206 203 210 224 236 239 238 237 244 259 282 293 188 199 208 166 124 119 105 111 113 118 102 105 111 123 124 127 123 114 93 140 140 117 127 146 255 210 273 201 165 84 253 238 242 237 242 247 252 272 288
207 209 205 212 209 213 227 239 246 238 233 234 242 270 156 171 183 189 175 175 127 120 112 125 130 157 126 132 111 122 132 137 137 106 87 124 125 189 216 220 184 209 147 181 254 266 263 254 240 244 257 267 275 278
207 208 207 210 213 213 221 242 252 252 242 227 227 214 193 196 193 207 219 204 202 186 127 133 125 108 119 126 129 112 122 108 78 80 76 195 133 103 218 161 230 190 183 176 218 202 199 210 192 215 239 255 261 261
206 202 202 197 198 211 223 227 248 249 231 224 219 223 208 208 209 212 228 214 183 152 123 110 92 25 151 124 136 139 126 116 86 78 61 71 167 189 163 246 236 220 221 227 230 237 224 232 234 269 278 273 275 264
202 198 196 185 181 210 206 206 208 221 214 200 207 217 209 211 212 217 219 172 169 157 112 108 88 54 155 165 138 120 131 94 83 92 68 252 290 270 169 248 243 226 236 238 243 250 261 261 268 275 273 265 257 256
202 197 188 186 185 189 201 196 195 203 189 173 175 205 190 195 191 196 184 161 159 134 99 100 90 122 149 142 86 112 84 104 56 85 91 14 315 261 255 241 238 227 221 230 232 244 254 258 262 265 262 261 256 257
201 197 191 186 183 173 184 164 161 146 133 151 171 191 116 153 166 164 168 170 173 119 113 110 131 185 155 109 95 100 117 51 76 2 79 205 281 232 230 241 243 231 221 223 231 241 247 253 259 261 260 257 257 266
198 196 188 187 182 177 176 168 164 150 135 139 142 152 126 116 121 118 103 149 162 163 116 93 126 117 158 164 146 115 10 94 218 237 327 126 258 257 255 253 255 244 234 236 244 248 250 257 269 280 276 274 270 272
197 192 187 186 183 177 174 172 170 173 146 157 153 122 133 137 128 92 92 75 1 35 130 112 143 144 164 137 135 114 158 59 77 267 125 295 271 248 284 271 232 236 240 245 252 260 264 266 272 274 274 279 273 270
195 192 189 187 188 183 178 180 174 174 165 158 133 120 136 137 91 84 274 344 87 222 145 140 132 126 138 135 113 122 135 41 236 348 66 277 254 268 269 213 168 163 184 221 239 255 260 266 270 273 274 273 270 269
193 194 189 186 187 184 176 183 173 176 171 154 148 147 134 46 37 133 208 294 308 177 169 152 137 135 123 130 88 87 83 210 36 55 233 234 265 297 256 221 214 198 187 220 261 277 272 278 278 283 286 280 275 272
193 192 189 185 183 183 178 185 183 165 165 163 159 158 157 294 247 189 185 190 161 171 159 147 118 130 124 82 130 92 251 62 39 346 240 256 333 334 233 230 231 237 253 258 265 281 290 290 292 292 292 286 280 281
191 190 187 186 182 178 175 186 182 182 182 187 169 204 203 202 195 173 181 148 145 154 148 123 92 124 42 94 60 107 39 262 208 231 236 300 346 7 318 261 263 274 281 278 284 285 281 280 276 277 282 281 278 274
185 184 194 186 180 175 182 178 184 187 229 218 220 131 174 152 203 198 186 161 154 156 144 120 107 64 288 124 97 213 130 224 247 223 264 356 37 42 25 1 334 313 305 299 300 304 302 298 288 277 278 284 283 276
179 188 192 178 174 184 178 176 174 217 221 215 241 227 211 281 164 164 169 165 161 162 169 129 123 200 116 51 258 191 207 221 219 209 115 22 5 346 330 316 304 305 306 314 316 310 298 294 292 290 288 287 281 275
189 190 184 172 174 176 180 181 203 219 240 224 221 197 207 215 186 172 172 165 162 187 165 202 137 149 195 194 231 230 234 246 250 273 291 300 298 304 303 304 308 306 301 304 304 297 295 297 295 292 288 287 282 277
193 192 175 178 180 166 165 187 200 216 229 225 221 218 196 209 211 200 188 183 182 174 171 178 178 188 220 217 232 255 261 261 282 295 291 293 294 298 300 304 306 302 298 298 293 290 288 285 285 288 288 285 281 276
192 191 182 186 183 167 171 193 184 208 208 214 214 198 194 210 214 212 204 193 184 170 212 219 222 227 223 244 253 261 272 283 289 291 293 298 300 302 306 306 305 306 301 297 292 291 290 288 286 290 289 284 277 274
181 180 182 184 186 189 196 175 185 201 198 195 196 179 193 202 207 201 194 185 177 213 238 237 252 264 264 264 267 269 274 277 280 290 296 298 302 303 307 308 306 301 297 297 295 294 289 287 289 288 286 280 272 262
174 178 173 185 185 193 220 201 183 174 176 174 166 180 162 174 188 191 181 183 214 229 229 247 259 267 272 275 281 283 283 286 291 294 295 297 299 302 302 303 300 301 299 299 299 297 294 289 281 280 277 264 251 246
173 175 177 180 190 202 213 181 168 179 140 171 158 141 197 197 187 175 222 219 231 237 248 256 265 268 269 273 272 275 282 287 289 293 295 296 293 294 296 298 301 298 299 302 301 296 293 287 283 275 255 240 241 233
174 172 168 180 190 183 161 171 143 128 114 151 157 198 212 173 166 186 252 252 249 254 258 261 264 267 269 272 278 286 292 294 295 295 297 297 296 297 297 300 304 305 305 305 304 300 292 289 277 258 247 244 230 219
160 172 177 190 184 137 140 124 126 131 145 182 156 214 193 162 154 210 230 261 251 260 262 264 267 272 276 283 287 291 294 295 293 291 289 294 294 295 297 303 302 301 298 298 299 292 284 273 263 254 241 227 218 207
190 185 181 179 159 164 168 141 169 161 146 149 204 130 154 135 146 239 217 233 243 253 258 261 267 267 267 274 281 285 290 292 292 293 294 289 288 288 297 297 299 314 315 316 300 276 260 251 243 233 225 215 207 204
198 168 193 187 175 144 104 115 148 145 170 184 162 159 157 186 224 239 220 221 233 243 257 263 268 273 279 282 283 290 294 293 287 286 288 286 286 291 297 292 294 306 313 302 290 266 246 242 239 233 221 209 205 205
169 174 176 164 168 186 143 165 164 184 173 146 133 174 179 199 218 199 200 216 226 235 249 259 264 269 275 280 288 293 293 293 292 287 286 284 287 288 287 289 308 311 297 286 267 258 243 237 231 223 212 209 211 206
151 193 182 182 162 180 194 179 192 199 175 171 172 189 184 150 159 172 192 225 240 249 257 260 267 278 284 287 288 289 292 293 294 294 293 293 292 290 302 309 310 298 281 268 258 251 230 217 212 207 210 210 204 202
6 13 209 179 168 205 213 209 220 205 194 201 192 146 129 115 92 202 259 263 272 278 282 287 289 290 291 291 289 289 292 296 297 296 298 297 300 302 306 302 294 289 280 263 246 229 215 205 201 201 198 197 196 193
352 352 340 355 97 44 105 154 162 169 176 165 161 150 133 138 125 71 40 3 332 312 300 293 295 299 299 297 296 295 293 291 289 290 292 294 296 297 298 298 291 281 266 257 247 233 223 213 210 203 197 193 188 183
2 10 351 41 55 45 103 85 89 79 65 71 50 68 99 99 77 40 10 2 352 345 341 332 322 317 312 307 305 301 297 296 292 288 287 287 289 291 285 286 287 275 263 249 234 226 223 220 212 200 190 180 178 173
2 14 32 39 25 28 19 63 64 79 51 59 45 49 45 64 84 28 9 7 4 357 349 340 332 324 318 313 309 306 302 300 297 294 291 288 285 290 285 280 287 270 251 237 231 224 215 210 200 185 175 176 174 174
Wind_Speed_850mb
38 33 30 25 20 19 17 14 12 11 11 13 12 10 9 6 6 5 4 2 2 13 11 7 5 5 9 9 7 13 7 7 7 7 6 4 6 6 6 4 9 10 10 6 6 8 12 16 8 11 9 12 7 2
30 27 31 30 25 22 21 21 20 18 17 15 14 14 16 16 11 4 0 6 6 9 14 20 19 15 15 10 10 6 7 4 3 7 3 6 5 5 6 4 4 3 11 9 14 11 10 11 3 9 11 8 11 8
29 24 19 19 17 15 14 16 20 23 21 18 15 15 13 8 10 5 6 10 13 20 17 7 8 10 6 8 12 5 4 4 6 8 9 4 5 5 5 8 3 4 11 3 6 9 26 27 24 30 25 23 21 23
31 28 24 22 19 15 12 9 8 10 17 18 14 4 6 11 7 5 5 4 7 15 8 4 6 9 7 8 10 11 13 10 13 10 8 5 6 3 4 4 5 12 14 11 9 15 23 33 37 44 31 20 24 27
34 31 27 24 19 14 14 14 13 12 10 13 14 10 10 10 8 8 7 9 6 3 11 9 12 8 9 10 9 9 13 12 6 6 5 2 4 4 4 2 7 21 13 10 12 27 17 8 15 12 18 20 25 27
36 32 30 25 20 17 18 16 14 10 10 11 12 14 14 14 13 8 5 10 11 10 9 6 5 6 5 9 11 13 14 9 6 4 4 2 4 4 2 6 17 42 47 53 24 28 21 13 17 26 31 33 35 33
41 37 32 25 23 19 15 15 10 9 8 11 14 13 12 13 14 8 3 8 20 9 4 10 5 3 11 9 5 6 5 5 5 5 4 1 2 4 3 8 11 29 30 41 49 48 45 55 48 37 32 26 25 27
44 40 37 33 28 21 18 15 12 11 11 12 16 12 11 9 11 9 8 17 21 5 6 6 4 3 12 4 5 4 4 4 6 4 3 3 5 5 10 30 20 23 21 26 29 33 42 46 44 40 32 29 32 34
47 44 40 37 32 26 22 19 15 11 13 20 19 9 3 4 6 7 14 20 14 3 7 7 8 6 11 5 5 4 3 3 2 2 4 1 4 12 21 26 34 28 28 16 20 34 42 47 44 43 42 41 40 36
52 47 43 39 35 32 29 27 20 16 15 15 14 4 4 7 14 21 8 8 7 3 4 7 12 6 11 9 6 6 0 1 3 3 3 3 8 63 66 53 49 33 22 32 35 33 29 29 27 24 29 33 38 34
56 51 46 42 38 36 31 27 28 18 13 9 6 4 13 17 6 4 5 5 3 4 4 8 8 8 11 5 5 3 4 4 4 7 6 5 7 14 10 11 12 31 48 55 51 46 43 41 38 34 31 27 27 29
59 55 50 45 41 38 32 26 25 23 13 11 9 13 11 4 4 9 2 4 4 8 10 11 10 8 12 9 8 3 6 5 5 2 6 7 9 24 15 1 6 8 8 12 19 23 24 27 28 31 33 36 36 37
61 57 51 46 40 37 37 30 26 26 19 13 7 8 5 2 9 9 8 7 3 17 19 15 7 8 9 6 11 6 7 7 0 5 7 10 21 11 5 11 12 11 8 4 7 11 14 17 21 25 27 29 31 33
62 57 52 48 44 39 38 33 25 26 13 8 11 3 8 3 8 8 8 8 8 8 39 31 16 7 8 6 5 9 4 4 6 4 12 6 22 13 13 20 23 17 16 14 13 16 21 26 28 31 35 36 37 36
63 57 52 49 46 41 39 33 25 20 9 7 10 7 9 9 7 10 10 11 12 36 42 18 13 5 4 7 5 7 7 7 12 10 7 12 24 16 6 13 20 22 23 26 26 30 33 38 41 42 45 47 48 48
63 53 54 53 49 46 43 36 26 16 5 8 10 4 7 5 5 13 23 18 33 50 18 7 8 6 2 8 6 13 11 12 8 8 10 18 20 16 16 15 14 17 22 26 30 36 42 48 56 57 52 52 57 54
67 53 65 60 54 50 40 36 18 9 9 7 7 19 20 4 6 11 24 26 51 38 6 9 7 12 10 4 5 9 10 8 13 13 6 9 14 23 33 35 30 29 29 31 49 62 65 64 61 60 60 58 53 52
79 70 60 67 65 57 50 33 12 10 12 17 10 14 28 15 12 16 19 42 42 26 20 8 15 6 10 10 8 10 35 33 29 21 21 33 35 36 28 27 36 48 59 70 66 61 62 62 60 61 61 58 55 52
85 71 61 80 79 56 25 26 16 11 23 7 16 20 17 13 27 14 20 48 29 25 13 13 4 8 9 20 25 37 41 42 48 50 48 42 34 42 56 62 64 61 60 62 62 65 67 70 75 73 69 62 55 46
74 58 69 77 80 26 18 14 23 14 13 16 22 21 17 14 22 27 29 44 35 12 8 6 12 30 34 50 45 43 48 49 49 56 65 62 60 69 67 62 62 62 62 63 66 70 71 70 69 66 60 52 46 40
64 69 59 84 68 29 18 19 20 14 11 14 16 22 12 17 20 26 28 40 24 14 16 45 65 80 79 80 83 83 83 83 78 75 82 83 76 72 73 73 73 71 71 69 66 64 63 63 56 57 53 46 38 32
66 91 72 78 23 23 20 27 13 24 17 9 18 20 9 11 15 19 26 23 20 37 48 70 89 95 98 102 94 79 72 65 71 80 84 83 83 83 79 69 64 61 61 61 54 53 53 45 45 44 39 32 29 28
80 83 43 34 19 29 11 36 21 26 8 18 20 8 6 12 15 27 15 22 29 59 72 83 94 97 97 97 95 93 90 90 88 87 82 74 67 61 59 57 52 53 54 55 51 49 46 38 35 30 25 25 27 28
75 66 28 33 33 13 24 17 14 15 12 8 9 7 6 15 19 8 8 14 44 51 68 90 86 90 89 88 86 85 77 65 61 65 58 53 52 50 44 41 43 45 45 46 43 38 32 26 23 21 22 26 28 27
29 24 22 13 27 14 9 9 7 5 8 8 8 5 7 17 5 7 8 14 42 73 79 75 75 74 71 71 65 59 54 53 52 52 46 40 37 36 34 34 36 38 38 37 32 27 23 23 23 26 27 29 30 31
15 22 28 26 18 15 15 15 15 12 9 9 8 13 11 6 5 12 8 36 68 68 56 51 49 49 47 50 52 52 48 45 47 40 39 37 31 29 31 42 36 22 23 25 25 21 23 25 26 27 29 31 32 32
14 11 22 25 26 27 12 11 16 9 14 15 11 12 9 11 15 10 20 37 34 33 33 33 34 36 39 36 37 40 40 34 33 37 40 38 35 36 38 48 38 21 28 31 26 20 22 22 25 28 30 32 32 31
15 30 19 26 17 31 14 11 15 19 11 22 25 14 24 20 13 8 12 14 20 24 27 29 31 33 33 36 38 36 36 37 36 35 32 34 33 30 30 32 24 20 24 27 27 27 27 26 26 28 32 32 33 32
12 23 40 13 11 13 17 16 17 30 38 40 17 13 12 10 9 8 7 9 11 13 16 19 21 23 27 29 31 32 34 36 38 37 38 39 36 35 36 36 33 31 29 30 31 32 31 28 29 30 31 30 29 31
13 10 13 20 15 16 15 24 26 41 50 31 23 20 17 13 7 2 7 10 12 13 16 21 26 29 32 34 34 32 35 36 38 39 42 43 42 41 40 38 36 31 29 28 29 35 41 40 37 38 36 36 35 38
18 14 8 5 6 9 7 13 17 27 31 19 13 14 18 22 18 18 18 11 11 13 17 22 24 30 34 36 40 43 38 37 35 36 41 45 45 43 40 37 35 32 29 29 30 32 32 35 37 37 37 37 39 41
24 14 7 6 6 16 10 8 9 10 11 11 15 14 12 10 10 13 26 25 19 18 21 25 29 29 31 34 37 41 45 44 42 43 43 45 44 42 40 36 34 34 33 30 31 33 33 31 32 34 35 39 43 41
6 17 17 10 11 10 19 9 11 10 20 12 18 16 15 10 9 19 21 31 35 32 33 33 33 32 32 32 33 34 36 38 39 40 40 41 41 37 34 31 28 26 26 26 28 31 31 29 31 35 40 44 42 40
Wind_Direction_850mb
222 215 218 214 210 211 214 219 220 218 225 235 245 248 238 254 334 21 73 88 202 106 93 92 103 112 100 109 137 155 67 324 34 55 102 231 109 230 76 196 169 156 131 189 82 71 285 203 88 163 179 148 169 120
216 218 219 220 220 224 230 235 237 235 237 246 257 266 268 256 244 275 349 100 117 104 127 117 98 101 112 114 122 109 126 122 131 84 41 94 53 42 158 216 185 222 176 180 180 210 250 207 166 169 161 177 208 240
211 209 212 206 203 210 224 236 239 238 237 244 259 282 293 188 199 208 166 124 119 105 111 113 118 102 105 111 123 124 127 123 114 93 140 140 117 127 146 255 210 273 201 165 84 253 238 242 237 242 247 252 272 288
207 209 205 212 209 213 227 239 246 238 233 234 242 270 156 171 183 189 175 175 127 120 112 125 130 157 126 132 111 122 132 137 137 106 87 124 125 189 216 220 184 209 147 181 254 266 263 254 240 244 257 267 275 278
207 208 207 210 213 213 221 242 252 252 242 227 227 214 193 196 193 207 219 204 202 186 127 133 125 108 119 126 129 112 122 108 78 80 76 195 133 103 218 161 230 190 183 176 218 202 199 210 192 215 239 255 261 261
206 202 202 197 198 211 223 227 248 249 231 224 219 223 208 208 209 212 228 214 183 152 123 110 92 25 151 124 136 139 126 116 86 78 61 71 167 189 163 246 236 220 221 227 230 237 224 232 234 269 278 273 275 264
202 198 196 185 181 210 206 206 208 221 214 200 207 217 209 211 212 217 219 172 169 157 112 108 88 54 155 165 138 120 131 94 83 92 68 252 290 270 169 248 243 226 236 238 243 250 261 261 268 275 273 265 257 256
202 197 188 186 185 189 201 196 195 203 189 173 175 205 190 195 191 196 184 161 159 134 99 100 90 122 149 142 86 112 84 104 56 85 91 14 315 261 255 241 238 227 221 230 232 244 254 258 262 265 262 261 256 257
201 197 191 186 183 173 184 164 161 146 133 151 171 191 116 153 166 164 168 170 173 119 113 110 131 185 155 109 95 100 117 51 76 2 79 205 281 232 230 241 243 231 221 223 231 241 247 253 259 261 260 257 257 266
198 196 188 187 182 177 176 168 164 150 135 139 142 152 126 116 121 118 103 149 162 163 116 93 126 117 158 164 146 115 10 94 218 237 327 126 258 257 255 253 255 244 234 236 244 248 250 257 269 280 276 274 270 272
197 192 187 186 183 177 174 172 170 173 146 157 153 122 133 137 128 92 92 75 1 35 130 112 143 144 164 137 135 114 158 59 77 267 125 295 271 248 284 271 232 236 240 245 252 260 264 266 272 274 274 279 273 270
195 192 189 187 188 183 178 180 174 174 165 158 133 120 136 137 91 84 274 344 87 222 145 140 132 126 138 135 113 122 135 41 236 348 66 277 254 268 269 213 168 163 184 221 239 255 260 266 270 273 274 273 270 269
193 194 189 186 187 184 176 183 173 176 171 154 148 147 134 46 37 133 208 294 308 177 169 152 137 135 123 130 88 87 83 210 36 55 233 234 265 297 256 221 214 198 187 220 261 277 272 278 278 283 286 280 275 272
193 192 189 185 183 183 178 185 183 165 165 163 159 158 157 294 247 189 185 190 161 171 159 147 118 130 124 82 130 92 251 62 39 346 240 256 333 334 233 230 231 237 253 258 265 281 290 290 292 292 292 286 280 281
191 190 187 186 182 178 175 186 182 182 182 187 169 204 203 202 195 173 181 148 145 154 148 123 92 124 42 94 60 107 39 262 208 231 236 300 346 7 318 261 263 274 281 278 284 285 281 280 276 277 282 281 278 274
185 184 194 186 180 175 182 178 184 187 229 218 220 131 174 152 203 198 186 161 154 156 144 120 107 64 288 124 97 213 130 224 247 223 264 356 37 42 25 1 334 313 305 299 300 304 302 298 288 277 278 284 283 276
179 188 192 178 174 184 178 176 174 217 221 215 241 227 211 281 164 164 169 165 161 162 169 129 123 200 116 51 258 191 207 221 219 209 115 22 5 346 330 316 304 305 306 314 316 310 298 294 292 290 288 287 281 275
189 190 184 172 174 176 180 181 203 219 240 224 221 197 207 215 186 172 172 165 162 187 165 202 137 149 195 194 231 230 234 246 250 273 291 300 298 304 303 304 308 306 301 304 304 297 295 297 295 292 288 287 282 277
193 192 175 178 180 166 165 187 200 216 229 225 221 218 196 209 211 200 188 183 182 174 171 178 178 188 220 217 232 255 261 261 282 295 291 293 294 298 300 304 306 302 298 298 293 290 288 285 285 288 288 285 281 276
192 191 182 186 183 167 171 193 184 208 208 214 214 198 194 210 214 212 204 193 184 170 212 219 222 227 223 244 253 261 272 283 289 291 293 298 300 302 306 306 305 306 301 297 292 291 290 288 286 290 289 284 277 274
181 180 182 184 186 189 196 175 185 201 198 195 196 179 193 202 207 201 194 185 177 213 238 237 252 264 264 264 267 269 274 277 280 290 296 298 302 303 307 308 306 301 297 297 295 294 289 287 289 288 286 280 272 262
174 178 173 185 185 193 220 201 183 174 176 174 166 180 162 174 188 191 181 183 214 229 229 247 259 267 272 275 281 283 283 286 291 294 295 297 299 302 302 303 300 301 299 299 299 297 294 289 281 280 277 264 251 246
173 175 177 180 190 202 213 181 168 179 140 171 158 141 197 197 187 175 222 219 231 237 248 256 265 268 269 273 272 275 282 287 289 293 295 296 293 294 296 298 301 298 299 302 301 296 293 287 283 275 255 240 241 233
174 172 168 180 190 183 161 171 143 128 114 151 157 198 212 173 166 186 252 252 249 254 258 261 264 267 269 272 278 286 292 294 295 295 297 297 296 297 297 300 304 305 305 305 304 300 292 289 277 258 247 244 230 219
160 172 177 190 184 137 140 124 126 131 145 182 156 214 193 162 154 210 230 261 251 260 262 264 267 272 276 283 287 291 294 295 293 291 289 294 294 295 297 303 302 301 298 298 299 292 284 273 263 254 241 227 218 207
190 185 181 179 159 164 168 141 169 161 146 149 204 130 154 135 146 239 217 233 243 253 258 261 267 267 267 274 281 285 290 292 292 293 294 289 288 288 297 297 299 314 315 316 300 276 260 251 243 233 225 215 207 204
198 168 193 187 175 144 104 115 148 145 170 184 162 159 157 186 224 239 220 221 233 243 257 263 268 273 279 282 283 290 294 293 287 286 288 286 286 291 297 292 294 306 313 302 290 266 246 242 239 233 221 209 205 205
169 174 176 164 168 186 143 165 164 184 173 146 133 174 179 199 218 199 200 216 226 235 249 259 264 269 275 280 288 293 293 293 292 287 286 284 287 288 287 289 308 311 297 286 267 258 243 237 231 223 212 209 211 206
151 193 182 182 162 180 194 179 192 199 175 171 172 189 184 150 159 172 192 225 240 249 257 260 267 278 284 287 288 289 292 293 294 294 293 293 292 290 302 309 310 298 281 268 258 251 230 217 212 207 210 210 204 202
6 13 209 179 168 205 213 209 220 205 194 201 192 146 129 115 92 202 259 263 272 278 282 287 289 290 291 291 289 289 292 296 297 296 298 297 300 302 306 302 294 289 280 263 246 229 215 205 201 201 198 197 196 193
352 352 340 355 97 44 105 154 162 169 176 165 161 150 133 138 125 71 40 3 332 312 300 293 295 299 299 297 296 295 293 291 289 290 292 294 296 297 298 298 291 281 266 257 247 233 223 213 210 203 197 193 188 183
2 10 351 41 55 45 103 85 89 79 65 71 50 68 99 99 77 40 10 2 352 345 341 332 322 317 312 307 305 301 297 296 292 288 287 287 289 291 285 286 287 275 263 249 234 226 223 220 212 200 190 180 178 173
2 14 32 39 25 28 19 63 64 79 51 59 45 49 45 64 84 28 9 7 4 357 349 340 332 324 318 313 309 306 302 300 297 294 291 288 285 290 285 280 287 270 251 237 231 224 215 210 200 185 175 176 174 174